Weather History for KLCH - August, 2013

Change the Weather History Date:

Wednesday, August 7, 2013

  Actual Average Record
Temperature  
Mean Temperature 87 °F 83 °F  
Max Temperature 96 °F 92 °F 100 °F (1929)
Min Temperature 77 °F 75 °F 65 °F (1912)
Degree Days  
Heating Degree Days 0 0  
Month to date heating degree days 0 0  
Since 1 June heating degree days 0 0  
Since 1 July heating degree days 0 0  
Cooling Degree Days 22 18  
Month to date cooling degree days 153 126  
Year to date cooling degree days 1757 1697  
Since 1 June cooling degree days 1272 1159  
Growing Degree Days 38 (Base 50)    
Moisture  
Dew Point 75 °F    
Average Humidity 67    
Maximum Humidity 91    
Minimum Humidity 42    
Precipitation  
Precipitation 0.00 in 0.17 in 6.77 in (1940)
Month to date precipitation 0.05 1.18  
Year to date precipitation 35.34 34.54  
Snow  
Snow 0.00 in 0.00 in 0.00 in ()
Month to date snowfall 0.0 0.0  
Since 1 June snowfall 0.0 0.0  
Since 1 July snowfall 0.0 0.0  
Snow Depth 0.00 in    
Sea Level Pressure  
Sea Level Pressure 29.95 in    
Wind  
Wind Speed 7 mph (SW)    
Max Wind Speed 14 mph    
Max Gust Speed 20 mph    
Visibility 10 miles    
Events      
T = Trace of Precipitation, MM = Missing Value Source: NWS Daily Summary

Daily Weather History Graph

Daily Weather History Graph

Search for Another Location

Airport or City:

Trip Planner

Search our weather history database for the weather conditions in past years. The results will help you decide how hot, cold, wet, or windy it might be!

Date:

Astronomy

Aug. 07, 2013 Rise Set
Actual Time 6:35 AM CDT 8:01 PM CDT
Civil Twilight 6:09 AM CDT 8:26 PM CDT
Nautical Twilight 5:39 AM CDT 8:57 PM CDT
Astronomical Twilight 5:07 AM CDT 9:29 PM CDT
Moon 7:16 AM CDT (8/7) 8:19 PM CDT (8/7)
Length of Visible Light 14h 17m
Length of Day
13h 25m
New Moon, 1% of the Moon is Illuminated
Aug 7
New Moon
Aug 14
First Quarter
Aug 20
Full
Aug 28
Last Quarter
Sep 5
New

Hourly Weather History & Observations

Time (CDT) Temp. Heat Index Dew Point Humidity Pressure Visibility Wind Dir Wind Speed Gust Speed Precip Events Conditions
12:53 AM 82.9 °F 91.8 °F 77.0 °F 82% 29.97 in 10.0 mi SW 4.6 mph - N/A   Clear
1:53 AM 82.9 °F 92.8 °F 78.1 °F 85% 29.96 in 10.0 mi WSW 6.9 mph - N/A   Clear
2:53 AM 82.0 °F 90.2 °F 77.0 °F 85% 29.96 in 10.0 mi SW 4.6 mph - N/A   Clear
3:53 AM 81.0 °F 87.9 °F 77.0 °F 88% 29.96 in 10.0 mi Calm Calm - N/A   Clear
4:53 AM 81.0 °F 87.9 °F 77.0 °F 88% 29.96 in 10.0 mi SW 3.5 mph - N/A   Partly Cloudy
5:53 AM 80.1 °F 85.8 °F 77.0 °F 90% 29.94 in 10.0 mi SW 4.6 mph - N/A   Clear
6:53 AM 81.0 °F 87.9 °F 77.0 °F 88% 29.94 in 9.0 mi WSW 5.8 mph - N/A   Clear
7:53 AM 82.9 °F 92.8 °F 78.1 °F 85% 29.95 in 10.0 mi WSW 5.8 mph - N/A   Partly Cloudy
8:53 AM 84.9 °F 95.3 °F 77.0 °F 77% 29.97 in 10.0 mi WSW 9.2 mph 17.3 mph N/A   Partly Cloudy
9:53 AM 88.0 °F 98.5 °F 75.9 °F 67% 29.98 in 10.0 mi SW 11.5 mph - N/A   Mostly Cloudy
10:24 AM 89.6 °F 99.8 °F 75.2 °F 62% 29.96 in 10.0 mi SW 9.2 mph 19.6 mph N/A   Scattered Clouds
10:53 AM 89.1 °F 99.1 °F 75.0 °F 63% 30.01 in 10.0 mi Variable 6.9 mph - N/A   Mostly Cloudy
11:04 AM 91.4 °F 100.1 °F 73.4 °F 55% 29.98 in 10.0 mi WSW 5.8 mph - N/A   Mostly Cloudy
11:53 AM 91.9 °F 100.7 °F 73.0 °F 54% 30.01 in 10.0 mi Variable 6.9 mph - N/A   Scattered Clouds
12:53 PM 93.9 °F 103.4 °F 73.0 °F 51% 29.98 in 10.0 mi SW 8.1 mph - N/A   Scattered Clouds
1:53 PM 93.9 °F 100.8 °F 71.1 °F 47% 29.96 in 10.0 mi SSW 9.2 mph 17.3 mph N/A   Partly Cloudy
2:53 PM 96.1 °F 102.9 °F 70.0 °F 43% 29.95 in 10.0 mi South 9.2 mph 16.1 mph N/A   Clear
3:53 PM 93.9 °F 105.4 °F 75.0 °F 54% 29.94 in 10.0 mi SSW 11.5 mph - N/A   Clear
4:53 PM 93.0 °F 104.6 °F 75.0 °F 56% 29.92 in 10.0 mi SSW 11.5 mph 18.4 mph N/A   Clear
5:53 PM 91.0 °F 99.3 °F 73.0 °F 55% 29.91 in 10.0 mi SSW 11.5 mph - N/A   Clear
6:53 PM 89.1 °F 97.0 °F 73.0 °F 59% 29.91 in 10.0 mi SSW 10.4 mph 17.3 mph N/A   Clear
7:53 PM 86.0 °F 95.1 °F 75.0 °F 70% 29.91 in 10.0 mi SSW 5.8 mph - N/A   Clear
8:53 PM 82.9 °F 90.2 °F 75.0 °F 77% 29.93 in 10.0 mi SSW 4.6 mph - N/A   Clear
9:53 PM 82.9 °F 90.8 °F 75.9 °F 79% 29.94 in 10.0 mi SSW 4.6 mph - N/A   Clear
10:53 PM 82.0 °F 89.4 °F 75.9 °F 82% 29.95 in 10.0 mi SW 4.6 mph - N/A   Clear
11:53 PM 79.0 °F - 75.0 °F 88% 29.95 in 10.0 mi Calm Calm - N/A   Clear